Regional Weather Roundup
Issued by NWS

Home | Current Version | Previous Version | Graphics & Text | Print | Product List | Glossary On
Versions: 1 2 3 4 5 6 7 8 9 10 11 12 13 14 15 16 17 18 19 20 21 22 23 24 25 26 27 28 29 30 31 32 33 34 35 36 37 38 39 40 41 42 43 44 45 46 47 48 49 50
000
ASUS45 KBOU 281507
RWRCO

WEATHER ROUNDUP FOR COLORADO
NATIONAL WEATHER SERVICE DENVER/BOULDER CO
900 AM MDT THU JUL 28 2016

NOTE: "FAIR" INDICATES FEW OR NO CLOUDS BELOW 12000 FEET WITH NO
SIGNIFICANT WEATHER AND/OR OBSTRUCTIONS TO VISIBILITY.

COZ001>005-013-030-031-281600-
...NORTHWEST COLORADO...

CITY           SKY/WX    TMP DP  RH WIND       PRES   REMARKS
CRAIG          FAIR      62  36  37 CALM      30.29S
HAYDEN         FAIR      63  28  27 E12       30.31R
MEEKER         FAIR      64  34  32 CALM      30.29F
MOUNT WERNER   NOT AVBL
STEAMBOAT SPGS FAIR      58  34  41 CALM      30.33R
WALDEN         FAIR      55  34  44 NW5       30.41S
$$

COZ006>008-011-281600-
...WEST CENTRAL VALLEYS...

CITY           SKY/WX    TMP DP  RH WIND       PRES   REMARKS
GRAND JUNCTION FAIR      76  34  21 SE10      30.15S
MONTROSE       FAIR      73  40  30 N6        30.25R
EAGLE          SUNNY     59  30  33 CALM      30.36F
RIFLE          FAIR      69  39  33 N3        30.24S
DELTA          NOT AVBL
NUCLA          NOT AVBL
$$

COZ017>023-064>068-281600-
...SOUTHWEST COLORADO...

CITY           SKY/WX    TMP DP  RH WIND       PRES   REMARKS
DURANGO        FAIR      76  45  33 E3        30.35R
CORTEZ         FAIR      76  44  32 CALM      30.25S
PAGOSA SPRINGS FAIR      70  38  31 CALM      30.45R
TELLURIDE      FAIR      67  38  34 CALM      30.53S
WOLF CREEK PAS FAIR      54  39  58 SW14G21   30.79R
$$

COZ009-010-012-014-032>034-037-058>063-281600-
...CENTRAL COLORADO...

CITY           SKY/WX    TMP DP  RH WIND       PRES   REMARKS
ASPEN          FAIR      64  37  36 SE3       30.39F
BUENA VISTA    FAIR      66  32  28 NW10      30.43R
COPPER MTN     FAIR      59  19  21 NW5       30.73R
BERTHOUD PASS  FAIR      50  36  57 N18G32    30.74R
COTTONWOOD PAS FAIR      64  30  27 CALM      30.56R
GUNNISON       FAIR      55  36  47 NE3       30.47S
KREMMLING      FAIR      55  34  44 CALM      30.41S
LEADVILLE      FAIR      62  23  22 CALM      30.54S
MONARCH PASS   FAIR      54  36  50 MISG      30.82S
SALIDA         FAIR      69  37  30 N6        30.44F
SUNLIGHT       NOT AVBL
WILKERSON PASS FAIR      55  32  41 NW9       30.69R
$$

COZ069>075-281600-
...SAN LUIS VALLEY/SANGRE DE CRISTO MOUNTAINS...

CITY           SKY/WX    TMP DP  RH WIND       PRES   REMARKS
ALAMOSA          N/A    N/A N/A N/A MISG      30.42R
LA VETA PASS   FAIR      61  43  51 S8G21     30.60R
SAGUACHE       FAIR      68  45  42 CALM      30.45S
$$

COZ035-036-038>040-281600-
...NORTHERN COLORADO FRONT RANGE...

CITY           SKY/WX    TMP DP  RH WIND       PRES   REMARKS
DENVER INTL AP FAIR      76  57  51 N10G18    30.17R
DMNS CITY PARK   N/A     75  58  56 N9        30.18R
AURORA         NOT AVBL
FRONT RANGE AP MOSUNNY   77  57  50 S8        30.11F
ERIE MUNI ARPT FAIR      69  59  71 N14G22    30.19R
BOULDER MUN AP FAIR      68  61  77 N14G21    30.20R
CENTENNIAL     FAIR      74  52  46 S6        30.20S
BROOMFIELD     MOSUNNY   72  57  60 N14       30.21R
LONGMONT       NOT AVBL
$$

COZ041-046-047-076>085-087-088-281600-
...PIKES PEAK/PALMER DIVIDE AND SOUTHERN FOOTHILLS...

CITY           SKY/WX    TMP DP  RH WIND       PRES   REMARKS
COLO. SPRINGS  FAIR      68  55  63 SE9       30.27S
A. F. ACADEMY  NOT AVBL
SCHRIEVER AFB  NOT AVBL
ELLICOTT       FAIR     N/A N/A N/A SE12G20   30.24F
FALCON         NOT AVBL
FORT CARSON    FAIR      67  57  69 VRB1      30.24F
LIMON          FAIR      69  57  65 S21G30    30.19F
MONUMENT HILL  FAIR      68  54  60 S12       30.32R
TRINIDAD       NOT AVBL
$$

COZ042>045-048>051-090-091-281600-
...NORTHEAST COLORADO...

CITY           SKY/WX    TMP DP  RH WIND       PRES   REMARKS
GREELEY ARPT   CLOUDY    64  59  82 N8        30.19S
AKRON          FAIR      66  56  70 E15       30.19S
BURLINGTON     FAIR      75  58  55 S21       30.10F
WRAY           NOT AVBL
STERLING       NOT AVBL
HOLYOKE        NOT AVBL
FORT MORGAN    NOT AVBL
$$

COZ086-089-092>099-281600-
...SOUTHEAST COLORADO...

CITY           SKY/WX    TMP DP  RH WIND       PRES   REMARKS
PUEBLO         FAIR      73  58  59 SE7       30.16F
LA JUNTA       FAIR      79  57  46 SE15      30.13F
LAMAR          FAIR      74  59  59 SE12      30.12F
SPRINGFIELD      N/A     72  59  63 SE20      30.18F
$$



USA.gov is the U.S. government's official web portal to all federal, state and local government web resources and services.